Weather Roundup
Issued by NWS

Home | Current Version | Previous Version | Text Only | Print | Product List | Glossary On
Versions: 1 2 3 4 5 6 7 8 9 10 11 12 13 14 15 16 17 18 19 20 21 22 23 24 25 26 27 28 29 30 31 32 33 34 35 36 37 38 39 40 41 42 43 44 45 46 47 48 49 50
722
NZUS93 KARX 291610
HRRWXR

CURRENT HOURLY OBSERVATIONS ACROSS
MUCH OF THE UPPER MISSISSIPPI VALLEY
NATIONAL WEATHER SERVICE LA CROSSE WI
1100 AM CDT FRI JUL 29 2016


...SOUTHEAST MINNESOTA...


CITY           SKY/WX    TMP DP  RH WIND       PRES   REMARKS
ROCHESTER      CLOUDY    68  61  78 NE8       30.06S
ROCHESTER/MAYO CLOUDY    68  60  74 N6        30.06S
WINONA         PTSUNNY   72  61  68 N3        30.04S
AUSTIN         CLOUDY    68  59  73 NE8       30.05S
ALBERT LEA     CLOUDY    68  63  83 NE7       30.07R
DODGE CENTER   MOSUNNY  N/A N/A N/A N9        30.07R
PRESTON        CLOUDY    64  58  80 NE7       30.05R
OWATONNA       MOSUNNY   70  61  73 NE7       30.07S
FARIBAULT      CLOUDY    72  63  73 N6        30.08S
$$

...ELSEWHERE IN MINNESOTA...


CITY           SKY/WX    TMP DP  RH WIND       PRES   REMARKS
MINNEAPOLIS    MOSUNNY   72  54  53 NE3       30.08S
INTNL FALLS    SUNNY     72  58  61 SE6       30.09S
DULUTH         SUNNY     69  50  50 SE10      30.12S
RED WING       CLOUDY    70  54  56 N3        30.05S
REDWOOD FALLS  SUNNY     73  58  59 NE7       30.10R
MANKATO        SUNNY     70  59  68 N7        30.08S
WORTHINGTON    CLOUDY    70  58  65 N7        30.12R
FAIRMONT       CLOUDY    66  61  82 N6        30.08R
$$

...SOUTHWEST WISCONSIN...


CITY           SKY/WX    TMP DP  RH WIND       PRES   REMARKS
LA CROSSE      MOSUNNY   72  61  68 VRB7      30.02S
PRAIRIE DU CHI CLOUDY    65  61  85 NE7       30.01R
BOSCOBEL       CLOUDY    67  62  84 VRB5      30.01R
LONE ROCK      CLOUDY    66  61  84 NE8       30.01S
PLATTEVILLE    CLOUDY    67  66  96 NE9       30.00R
FORT MC COY    CLOUDY    71  62  73 NE8       30.03F
CAMP DOUGLAS   CLOUDY    66  61  82 NE6       30.03S
MAUSTON-NEW LI CLOUDY    65  61  88 CALM      30.03S
VIROQUA        CLOUDY    64  61  90 NE5       30.04R
WIS DELLS      CLOUDY    64  62  91 NE5       30.02S
$$

...ELSEWHERE IN WISCONSIN...


CITY           SKY/WX    TMP DP  RH WIND       PRES   REMARKS
MILWAUKEE      CLOUDY    73  66  78 E10       29.99R
MADISON        LGT RAIN  69  66  90 NE10      29.99S
GREEN BAY      CLOUDY    68  66  93 NE12      30.04S
EAU CLAIRE     SUNNY     72  56  57 NE8       30.06S
BLACK RVR FLS  FAIR      72  59  63 NE7       30.04R
MEDFORD        MOSUNNY   69  56  64 NE5       30.08S
WAUSAU         SUNNY     71  59  65 E10       30.05S
WIS RAPIDS     CLOUDY    71  60  68 E9        30.05F
MARSHFIELD     MOSUNNY   72  61  68 E10       30.05F
RICE LAKE      SUNNY     68  52  57 N6        30.10S
$$

...NORTHEAST IOWA...


CITY           SKY/WX    TMP DP  RH WIND       PRES   REMARKS
WATERLOO       CLOUDY    68  63  84 NE10      29.99S
DUBUQUE        CLOUDY    68  65  90 NE8       29.99R
DECORAH        CLOUDY    63  63 100 NE6       30.02R
MASON CITY     LGT RAIN  65  60  84 NE9       30.07R
CHARLES CITY   CLOUDY    66  64  94 NE8       30.04R
OELWEIN        CLOUDY    66  64  94 NE9       30.01S
$$

...ELSEWHERE IN IOWA...


CITY           SKY/WX    TMP DP  RH WIND       PRES   REMARKS
DES MOINES     CLOUDY    70  63  78 N12       30.00F
IOWA CITY      CLOUDY    71  67  87 W5        29.98S
FORT DODGE     CLOUDY    64  61  88 N6        30.06S
MARSHALLTOWN   CLOUDY    66  65  96 NW8       30.00F
CEDAR RAPIDS   CLOUDY    70  69  97 NW3       29.96F FOG
$$

...NORTHERN ILLINOIS...


CITY           SKY/WX    TMP DP  RH WIND       PRES   REMARKS
CHICAGO-OHARE  CLOUDY    79  70  74 NE8       29.94R
CHICAGO-MIDWAY PTSUNNY   82  68  62 E8        29.93R
MOLINE         CLOUDY    77  68  73 W7        29.94S
ROCKFORD       CLOUDY    77  68  73 NE6       29.97R
PEORIA         CLOUDY    73  69  87 W7        29.95S
$$

NOTE: "FAIR" INDICATES FEW OR NO CLOUDS BELOW 12,000 FEET WITH NO
SIGNIFICANT WEATHER AND/OR OBSTRUCTIONS TO VISIBILITY. WIND
SPEEDS ARE IN MILES-PER-HOUR.




USA.gov is the U.S. government's official web portal to all federal, state and local government web resources and services.